| time (UTC) | temp C | wind direction | speed KPH | gust KPH | rain 1hr cm | rain 24hr cm | rain mn cm | humidity % | barometer mb |
| 20260504050024 | 11 | 203 | 0.0 | 1.6 | 0.00 | 0.18 | 0.00 | 76 | 1006.6 |
| 20260504044523 | 11 | 203 | 0.0 | 1.6 | 0.00 | 0.18 | 0.18 | 75 | 1006.6 |
| 20260504043044 | 11 | 203 | 0.0 | 3.2 | 0.00 | 0.18 | 0.18 | 74 | 1006.6 |
| 20260504041534 | 12 | 215 | 0.0 | 3.2 | 0.00 | 0.18 | 0.18 | 74 | 1006.5 |
| 20260504040028 | 12 | 221 | 0.0 | 3.2 | 0.00 | 0.18 | 0.18 | 74 | 1006.5 |
| 20260504034526 | 12 | 192 | 0.0 | 3.2 | 0.00 | 0.18 | 0.18 | 74 | 1006.6 |
| 20260504033023 | 12 | 191 | 0.0 | 1.6 | 0.00 | 0.18 | 0.18 | 72 | 1006.8 |
| 20260504031521 | 12 | 191 | 0.0 | 0.0 | 0.00 | 0.18 | 0.18 | 69 | 1007.0 |
| 20260504030019 | 13 | 191 | 0.0 | 0.0 | 0.00 | 0.18 | 0.18 | 67 | 1007.0 |
| 20260504024515 | 13 | 191 | 0.0 | 4.8 | 0.00 | 0.18 | 0.18 | 66 | 1006.9 |
| 20260504023013 | 14 | 193 | 0.0 | 3.2 | 0.00 | 0.18 | 0.18 | 64 | 1007.0 |
| 20260504021511 | 15 | 193 | 0.0 | 3.2 | 0.00 | 0.18 | 0.18 | 62 | 1006.8 |
| 20260504020034 | 15 | 169 | 0.0 | 1.6 | 0.00 | 0.18 | 0.18 | 60 | 1006.7 |
| 20260504014522 | 16 | 213 | 0.0 | 3.2 | 0.00 | 0.18 | 0.18 | 58 | 1006.6 |
| 20260504013025 | 16 | 236 | 1.6 | 8.0 | 0.00 | 0.18 | 0.18 | 57 | 1006.5 |
| 20260504011515 | 17 | 205 | 1.6 | 4.8 | 0.00 | 0.18 | 0.18 | 55 | 1006.4 |
| 20260504010012 | 17 | 194 | 1.6 | 4.8 | 0.00 | 0.18 | 0.18 | 53 | 1006.3 |
| 20260504004522 | 18 | 221 | 1.6 | 4.8 | 0.00 | 0.18 | 0.18 | 50 | 1006.3 |
| 20260504003025 | 18 | 207 | 3.2 | 11.3 | 0.00 | 0.18 | 0.18 | 47 | 1006.4 |
| 20260504001532 | 19 | 215 | 3.2 | 11.3 | 0.00 | 0.18 | 0.18 | 47 | 1006.4 |
| 20260504000023 | 19 | 223 | 3.2 | 12.9 | 0.00 | 0.18 | 0.18 | 45 | 1006.4 |
| 20260503234520 | 20 | 200 | 3.2 | 16.1 | 0.00 | 0.18 | 0.18 | 45 | 1006.4 |
| 20260503233018 | 20 | 248 | 4.8 | 17.7 | 0.00 | 0.18 | 0.18 | 43 | 1006.4 |
| 20260503231528 | 20 | 202 | 3.2 | 17.7 | 0.00 | 0.18 | 0.18 | 43 | 1006.4 |
| 20260503230030 | 20 | 234 | 3.2 | 14.5 | 0.00 | 0.18 | 0.18 | 43 | 1006.5 |
| 20260503224525 | 20 | 254 | 3.2 | 14.5 | 0.00 | 0.18 | 0.18 | 42 | 1006.6 |
| 20260503223024 | 20 | 174 | 3.2 | 12.9 | 0.00 | 0.18 | 0.18 | 42 | 1006.7 |
| 20260503221519 | 20 | 284 | 4.8 | 19.3 | 0.00 | 0.18 | 0.18 | 42 | 1006.7 |
| 20260503220029 | 20 | 149 | 6.4 | 33.8 | 0.00 | 0.18 | 0.18 | 41 | 1007.0 |
| 20260503214541 | 19 | 217 | 8.0 | 16.1 | 0.00 | 0.18 | 0.18 | 42 | 1007.0 |
| 20260503213033 | 18 | 206 | 3.2 | 16.1 | 0.00 | 0.18 | 0.18 | 45 | 1007.2 |
| 20260503211526 | 19 | 261 | 3.2 | 14.5 | 0.00 | 0.18 | 0.18 | 45 | 1007.6 |
| 20260503210025 | 18 | 219 | 8.0 | 25.7 | 0.00 | 0.18 | 0.18 | 43 | 1007.8 |
| 20260503204529 | 18 | 215 | 6.4 | 17.7 | 0.00 | 0.18 | 0.18 | 42 | 1008.2 |
| 20260503203025 | 17 | 161 | 8.0 | 22.5 | 0.00 | 0.18 | 0.18 | 42 | 1008.7 |
| 20260503201532 | 17 | 209 | 11.3 | 27.4 | 0.00 | 0.18 | 0.18 | 41 | 1008.9 |
| 20260503200030 | 17 | 218 | 9.7 | 29.0 | 0.00 | 0.18 | 0.18 | 44 | 1008.9 |
| 20260503194527 | 17 | 217 | 9.7 | 24.1 | 0.00 | 0.18 | 0.18 | 43 | 1009.0 |
| 20260503193028 | 17 | 188 | 11.3 | 24.1 | 0.00 | 0.18 | 0.18 | 50 | 1009.1 |
| 20260503191526 | 16 | 200 | 11.3 | 29.0 | 0.00 | 0.18 | 0.18 | 51 | 1009.4 |
| 20260503190037 | 15 | 203 | 3.2 | 17.7 | 0.00 | 0.18 | 0.18 | 61 | 1009.5 |
| 20260503184530 | 15 | 180 | 4.8 | 16.1 | 0.00 | 0.18 | 0.18 | 63 | 1010.0 |
| 20260503183034 | 13 | 200 | 4.8 | 14.5 | 0.00 | 0.18 | 0.18 | 69 | 1010.2 |
| 20260503181531 | 12 | 59 | 3.2 | 12.9 | 0.00 | 0.18 | 0.18 | 76 | 1010.5 |
| 20260503180024 | 11 | 360 | 3.2 | 14.5 | 0.03 | 0.18 | 0.18 | 76 | 1011.1 |
| 20260503174506 | 10 | 93 | 3.2 | 11.3 | 0.05 | 0.18 | 0.18 | 81 | 1011.3 |
| 20260503173007 | 10 | 146 | 1.6 | 14.5 | 0.08 | 0.18 | 0.18 | 83 | 1012.1 |
| 20260503171505 | 9 | 198 | 3.2 | 9.7 | 0.08 | 0.18 | 0.18 | 85 | 1012.5 |
| 20260503081528 | 6 | 209 | 0.0 | 4.8 | 0.00 | 0.00 | 0.00 | 66 | 1015.4 |
| 20260503071520 | 4 | 237 | 0.0 | 0.0 | 0.00 | 0.00 | 0.00 | 77 | 1015.5 |